Retour au catalogue

STARLINK-31126

ActifCommunicationsVLEO
NORAD 58675·PAYLOAD·🇺🇸 United States

Lancé Dec 29, 2023 depuis Cape Canaveral Space Force Station

Loading…

Prochains Passages (prochaines 24 heures)

TLE

FraisSource: CelesTrak SupGP

Époque: Sep 15, 2026, 02:16 UTC

1 58675C 23211J   26258.09493056  .00033820  00000+0  12246-2 0  2589
2 58675  43.0030  95.1615 0001418 275.2150 203.3290 15.27571922    17

Suivez STARLINK-31126 en temps réel avec AllMySat

Download on the App Store